West Chatham, MA

1:10 AM EST on February 28, 2017 (GMT -0500)
Chatham Municipal

Weather History for KCQX - April, 2014

Change the Weather History Date:

Friday, April 4, 2014

  Actual Average Record
Temperature  
Mean Temperature 39 °F -  
Max Temperature 46 °F 46 °F 62 °F (1997)
Min Temperature 34 °F 34 °F 25 °F (2016)
Degree Days  
Heating Degree Days 26    
Moisture  
Dew Point 35 °F    
Average Humidity 80    
Maximum Humidity 93    
Minimum Humidity 65    
Precipitation  
Precipitation 0.07 in - - ()
Sea Level Pressure  
Sea Level Pressure 30.06 in    
Wind  
Wind Speed 7 mph (East)    
Max Wind Speed 15 mph    
Max Gust Speed 21 mph    
Visibility 9 miles    
Events Rain    
Averages and records for this station are not official NWS values.
T = Trace of Precipitation, MM = Missing Value Source: NWS Daily Summary

Daily Weather History Graph

Daily Weather History Graph

Search for Another Location

Airport or City:

Trip Planner

Search our weather history database for the weather conditions in past years. The results will help you decide how hot, cold, wet, or windy it might be!

Date:

Astronomy

Apr. 04, 2014 Rise Set
Actual Time 6:17 AM EDT 7:08 PM EDT
Civil Twilight 5:49 AM EDT 7:36 PM EDT
Nautical Twilight 5:16 AM EDT 8:10 PM EDT
Astronomical Twilight 4:41 AM EDT 8:45 PM EDT
Moon 9:29 AM EDT (4/4) No Moon Set
Length of Visible Light 13h 47m
Length of Day
12h 50m
Waxing Crescent, 25% of the Moon is Illuminated
Apr 4
Waxing Crescent
Apr 7
First Quarter
Apr 15
Full
Apr 22
Last Quarter
Apr 29
New

Hourly Weather History & Observations

Time (EDT) Temp. Windchill Dew Point Humidity Pressure Visibility Wind Dir Wind Speed Gust Speed Precip Events Conditions
12:52 AM 35.1 °F - 30.0 °F 82% 30.14 in 10.0 mi Calm Calm - N/A   Clear
1:52 AM 34.0 °F 31.0 °F 30.0 °F 85% 30.14 in 10.0 mi NNW 3.5 mph - N/A   Clear
3:52 AM 36.0 °F - 32.0 °F 86% 30.14 in 10.0 mi Calm Calm - N/A   Clear
5:52 AM 37.0 °F 34.5 °F 32.0 °F 82% 30.13 in 10.0 mi Variable 3.5 mph - N/A   Clear
6:52 AM 39.0 °F 35.7 °F 33.1 °F 79% 30.14 in 10.0 mi NNE 4.6 mph - N/A   Partly Cloudy
7:52 AM 39.9 °F 35.8 °F 34.0 °F 79% 30.15 in 10.0 mi NE 5.8 mph - N/A   Clear
8:52 AM 42.1 °F 36.6 °F 33.1 °F 70% 30.17 in 10.0 mi NNE 9.2 mph - N/A   Clear
9:52 AM 43.0 °F 38.8 °F 33.1 °F 68% 30.17 in 10.0 mi NE 6.9 mph - N/A   Clear
10:52 AM 43.0 °F 36.8 °F 32.0 °F 65% 30.17 in 10.0 mi ENE 11.5 mph - N/A   Clear
11:52 AM 44.1 °F 37.7 °F 33.1 °F 65% 30.15 in 10.0 mi ENE 12.7 mph - N/A   Clear
12:52 PM 44.1 °F 37.7 °F 34.0 °F 68% 30.14 in 10.0 mi East 12.7 mph - N/A   Mostly Cloudy
1:52 PM 44.1 °F 37.1 °F 35.1 °F 71% 30.13 in 10.0 mi ENE 15.0 mph - N/A   Mostly Cloudy
2:52 PM 44.1 °F 38.1 °F 33.1 °F 65% 30.13 in 10.0 mi East 11.5 mph - N/A   Clear
3:52 PM 44.1 °F 38.1 °F 36.0 °F 73% 30.10 in 10.0 mi ESE 11.5 mph - N/A   Mostly Cloudy
4:52 PM 42.1 °F 35.7 °F 37.0 °F 82% 30.09 in 10.0 mi ESE 11.5 mph - N/A   Overcast
5:52 PM 41.0 °F 34.7 °F 37.0 °F 86% 30.07 in 10.0 mi ESE 10.4 mph 17.3 mph N/A   Overcast
6:52 PM 41.0 °F 35.2 °F 36.0 °F 82% 30.03 in 10.0 mi East 9.2 mph - 0.00 in   Overcast
7:52 PM 41.0 °F 33.9 °F 36.0 °F 82% 30.00 in 10.0 mi East 12.7 mph - N/A   Overcast
8:52 PM 39.9 °F 31.8 °F 36.0 °F 86% 29.99 in 10.0 mi ESE 15.0 mph - N/A   Overcast
9:52 PM 39.9 °F 31.8 °F 36.0 °F 86% 29.94 in 10.0 mi ESE 15.0 mph 20.7 mph 0.00 in Rain Light Rain
10:52 PM 39.9 °F 32.9 °F 36.0 °F 86% 29.92 in 10.0 mi ESE 11.5 mph - 0.00 in Rain Light Rain
11:27 PM 39.9 °F 33.4 °F 37.0 °F 89% 29.90 in 5.0 mi ESE 10.4 mph - 0.00 in Rain Light Rain
11:44 PM 39.9 °F 33.9 °F 37.9 °F 93% 29.88 in 2.0 mi ESE 9.2 mph - 0.06 in Rain Heavy Rain
11:52 PM 39.9 °F 33.4 °F 37.9 °F 93% 29.88 in 2.5 mi ESE 10.4 mph - 0.07 in Rain Light Rain
11:57 PM 39.9 °F 33.4 °F 37.9 °F 93% 29.87 in 4.0 mi ESE 10.4 mph - 0.00 in Rain Light Rain